User: anonymous
Location: Oshawa
(43.9000°N, 78.8670°W)
Time: 20:13:38
(UTC-04:00)
Language:

CARTOSAT-1 - Orbit

View from above orbital plane
View from above orbital plane
View from above satellite
View from above satellite

Ground track
Ground track

The orbit data is extracted from the following two-line orbital elements,

1 28649U 05017A   14107.35730609  .00001918  00000-0  23976-3 0  1168
2 28649 097.8384 182.4584 0001973 117.3111 242.8318 14.83475981484472
Epoch (UTC): 17 April 2014 08:34:31
Eccentricity: 0.0001973
inclination: 97.8384°
perigee height: 617 km
apogee height: 620 km
right ascension of ascending node: 182.4584°
argument of perigee: 117.3111°
revolutions per day: 14.83475981
mean anomaly at epoch: 242.8318°
orbit number at epoch: 48447

The dashed part of the orbit path shows where the satellite is in the earth's shadow,  

DLR